{"data":{"norad_id":59864,"epoch":"2026-09-21T00:10:37.990560Z","epoch_age_seconds":130665,"freshness":"FRESH","line1":"1 59864U 24098G   26264.00738415  .00000439  00000+0  25488-4 0  9999","line2":"2 59864  43.0006 255.2723 0001291 239.2154 120.8571 15.27587176131718","mean_motion":15.27587176,"eccentricity":0.0001291,"inclination_deg":43.0006,"raan_deg":255.2723,"arg_perigee_deg":239.2154,"mean_anomaly_deg":120.8571,"bstar":2.5488e-5,"rev_number":13171,"period_min":94.266305885773,"perigee_km":482.14183224725,"apogee_km":483.91338494919,"semimajor_km":6861.1646085982,"source":"CELESTRAK","updated_at":"2026-09-22T09:00:49.101373Z"}}